FW2576 Weather Reports


time (UTC)temp
C
wind
direction
speed
KPH
gust
KPH
rain 1hr
cm
rain 24hr
cm
rain mn
cm
humidity
%
barometer
mb
20260505124854 13 335 0.0 0.0 0.00 0.00 0.00 38 1012.0
20260505124254 13 251 0.0 0.0 0.00 0.00 0.00 39 1012.0
20260505123654 13 251 0.0 0.0 0.00 0.00 0.00 39 1012.1
20260505123054 13 243 0.0 0.0 0.00 0.00 0.00 38 1012.1
20260505122455 13 248 0.0 1.6 0.00 0.00 0.00 38 1012.0
20260505121854 13 238 0.0 3.2 0.00 0.00 0.00 38 1011.9
20260505121254 13 245 0.0 0.0 0.00 0.00 0.00 38 1012.0
20260505120654 13 237 0.0 0.0 0.00 0.00 0.00 38 1011.9
20260505120053 13 232 0.0 3.2 0.00 0.00 0.00 38 1011.9
20260505115453 13 237 0.0 4.8 0.00 0.00 0.00 38 1011.9
20260505114853 13 241 0.0 4.8 0.00 0.00 0.00 38 1011.9
20260505114254 13 250 0.0 0.0 0.00 0.00 0.00 37 1011.8
20260505113654 13 271 0.0 0.0 0.00 0.00 0.00 37 1011.7
20260505113054 13 284 0.0 0.0 0.00 0.00 0.00 37 1011.8
20260505112453 13 284 0.0 0.0 0.00 0.00 0.00 36 1011.6
20260505111854 14 284 0.0 0.0 0.00 0.00 0.00 36 1011.7
20260505111253 14 285 0.0 0.0 0.00 0.00 0.00 36 1011.6
20260505110654 14 283 0.0 0.0 0.00 0.00 0.00 35 1011.7
20260505101853 14 249 0.0 1.6 0.00 0.00 0.00 35 1011.9
20260505101253 14 249 0.0 1.6 0.00 0.00 0.00 35 1011.9
20260505100653 14 249 0.0 0.0 0.00 0.00 0.00 34 1011.8
20260505100053 14 247 0.0 1.6 0.00 0.00 0.00 34 1011.8
20260505095453 15 246 0.0 3.2 0.00 0.00 0.00 34 1011.8
20260505094853 15 261 0.0 1.6 0.00 0.00 0.00 34 1011.7
20260505094253 15 275 0.0 0.0 0.00 0.00 0.00 34 1011.7
20260505093653 15 319 0.0 0.0 0.00 0.00 0.00 33 1011.7
20260505093053 15 335 0.0 0.0 0.00 0.00 0.00 33 1011.7
20260505092453 15 351 0.0 0.0 0.00 0.00 0.00 34 1011.8
20260505091853 15 351 0.0 0.0 0.00 0.00 0.00 34 1011.9
20260505091254 15 351 0.0 0.0 0.00 0.00 0.00 34 1011.8
20260505090653 15 351 0.0 0.0 0.00 0.00 0.00 34 1011.8
20260505090053 15 351 0.0 0.0 0.00 0.00 0.00 33 1011.9
20260505085454 15 351 0.0 0.0 0.00 0.00 0.00 33 1012.0
20260505084853 15 351 0.0 0.0 0.00 0.00 0.00 33 1012.1
20260505084253 15 351 0.0 6.4 0.00 0.00 0.00 32 1012.1
20260505083653 15 354 1.6 6.4 0.00 0.00 0.00 32 1012.2
20260505083053 15 328 1.6 9.7 0.00 0.00 0.00 33 1012.2
20260505082453 15 282 0.0 11.3 0.00 0.00 0.00 32 1012.2
20260505081853 15 301 4.8 11.3 0.00 0.00 0.00 32 1012.3
20260505081254 16 261 1.6 11.3 0.00 0.00 0.00 33 1012.3
20260505080652 16 265 3.2 11.3 0.00 0.00 0.00 32 1012.5
20260505080053 16 275 3.2 9.7 0.00 0.00 0.00 32 1012.5
20260505075453 16 261 1.6 6.4 0.00 0.00 0.00 32 1012.6
20260505074853 16 259 3.2 8.0 0.00 0.00 0.00 31 1012.6
20260505074253 16 235 1.6 9.7 0.00 0.00 0.00 31 1012.5
20260505073653 16 258 4.8 11.3 0.00 0.00 0.00 31 1012.4
20260505073053 16 274 4.8 14.5 0.00 0.00 0.00 31 1012.5
20260505072453 16 271 3.2 12.9 0.00 0.00 0.00 30 1012.4
20260505071853 16 268 4.8 12.9 0.00 0.00 0.00 30 1012.3
20260505071253 17 253 6.4 17.7 0.00 0.00 0.00 29 1012.3
20260505070652 17 249 8.0 19.3 0.00 0.00 0.00 29 1012.3
20260505070053 17 249 6.4 16.1 0.00 0.00 0.00 28 1012.1
20260505065453 17 273 6.4 14.5 0.00 0.00 0.00 28 1011.9
20260505064852 17 236 6.4 16.1 0.00 0.00 0.00 28 1011.9
20260505064252 17 237 4.8 16.1 0.00 0.00 0.00 28 1012.0
20260505063652 17 228 9.7 20.9 0.00 0.00 0.00 28 1011.9
20260505063052 17 245 8.0 20.9 0.00 0.00 0.00 27 1011.8
20260505062452 17 251 8.0 16.1 0.00 0.00 0.00 27 1011.7
20260505061853 17 240 8.0 17.7 0.00 0.00 0.00 27 1011.8
20260505061253 17 240 6.4 19.3 0.00 0.00 0.00 27 1011.7
20260505060653 17 268 6.4 19.3 0.00 0.00 0.00 26 1011.6
20260505060053 17 266 6.4 19.3 0.00 0.00 0.00 26 1011.6
20260505055453 18 261 9.7 19.3 0.00 0.00 0.00 26 1011.4
20260505054853 18 243 8.0 20.9 0.00 0.00 0.00 25 1011.6
20260505054252 18 220 9.7 20.9 0.00 0.00 0.00 25 1011.6
20260505053653 18 250 11.3 17.7 0.00 0.00 0.00 25 1011.7
20260505053053 18 272 8.0 16.1 0.00 0.00 0.00 24 1011.7
20260505052452 18 266 8.0 14.5 0.00 0.00 0.00 24 1011.6
20260505051853 18 270 6.4 14.5 0.00 0.00 0.00 25 1011.5
20260505051252 18 276 1.6 12.9 0.00 0.00 0.00 25 1011.5
20260505050652 18 268 3.2 9.7 0.00 0.00 0.00 25 1011.4
20260505041252 19 262 0.0 8.0 0.00 0.00 0.00 25 1011.4
20260505040652 19 264 0.0 1.6 0.00 0.00 0.00 25 1011.2
20260505040052 19 264 0.0 1.6 0.00 0.00 0.00 25 1011.2
20260505035452 19 264 0.0 9.7 0.00 0.00 0.00 25 1011.2
20260505034852 19 259 1.6 9.7 0.00 0.00 0.00 24 1011.2
20260505034252 20 276 0.0 14.5 0.00 0.00 0.00 24 1011.1
20260505033651 20 264 4.8 14.5 0.00 0.00 0.00 24 1011.0
20260505033052 20 272 3.2 8.0 0.00 0.00 0.00 24 1010.9
20260505032451 20 261 4.8 16.1 0.00 0.00 0.00 24 1010.8
20260505031851 20 282 8.0 17.7 0.00 0.00 0.00 23 1010.8
20260505031251 20 285 9.7 19.3 0.00 0.00 0.00 23 1010.7
20260505030651 20 276 11.3 19.3 0.00 0.00 0.00 23 1010.7
20260505030052 20 280 6.4 20.9 0.00 0.00 0.00 23 1010.5
20260505025452 20 267 14.5 25.7 0.00 0.00 0.00 23 1010.5
20260505024851 20 270 17.7 24.1 0.00 0.00 0.00 23 1010.4
20260505024251 20 265 16.1 20.9 0.00 0.00 0.00 22 1010.4
20260505023650 20 300 9.7 20.9 0.00 0.00 0.00 22 1010.3
20260505023051 21 258 9.7 20.9 0.00 0.00 0.00 22 1010.3
20260505022450 21 266 12.9 20.9 0.00 0.00 0.00 21 1010.3
20260505021850 21 259 8.0 19.3 0.00 0.00 0.00 21 1010.3
20260505021251 21 274 6.4 19.3 0.00 0.00 0.00 20 1010.2
20260505020651 21 234 8.0 17.7 0.00 0.00 0.00 20 1010.1
20260505020050 21 278 9.7 16.1 0.00 0.00 0.00 20 1010.0
20260505015450 21 259 8.0 20.9 0.00 0.00 0.00 21 1010.0
20260505014850 21 300 1.6 8.0 0.00 0.00 0.00 21 1009.8
20260505014251 21 278 1.6 11.3 0.00 0.00 0.00 21 1009.9
20260505013650 22 253 6.4 14.5 0.00 0.00 0.00 20 1009.8
20260505013050 22 278 4.8 16.1 0.00 0.00 0.00 20 1009.6
20260505012450 22 232 9.7 22.5 0.00 0.00 0.00 20 1009.5
20260505011850 22 276 6.4 22.5 0.00 0.00 0.00 20 1009.5
20260505011250 22 271 6.4 20.9 0.00 0.00 0.00 20 1009.4
20260505010650 22 243 6.4 20.9 0.00 0.00 0.00 19 1009.5
20260505010050 22 236 6.4 16.1 0.00 0.00 0.00 19 1009.5
20260505005450 22 231 8.0 19.3 0.00 0.00 0.00 19 1009.5
20260505004850 22 274 8.0 22.5 0.00 0.00 0.00 19 1009.5
20260505004250 22 249 6.4 20.9 0.00 0.00 0.00 19 1009.4
20260505003650 22 230 9.7 17.7 0.00 0.00 0.00 18 1009.6
20260505003050 22 255 4.8 25.7 0.00 0.00 0.00 18 1009.6
20260505002450 22 216 4.8 19.3 0.00 0.00 0.00 18 1009.6
20260505001850 23 284 9.7 24.1 0.00 0.00 0.00 17 1009.6
20260505001250 23 245 14.5 24.1 0.00 0.00 0.00 17 1009.8
20260505000650 23 237 9.7 22.5 0.00 0.00 0.00 17 1009.7
20260505000050 23 275 11.3 24.1 0.00 0.00 0.00 16 1009.6
20260504235450 23 270 16.1 29.0 0.00 0.00 0.00 17 1009.6
20260504234850 23 267 14.5 29.0 0.00 0.00 0.00 17 1009.6
20260504234250 23 255 6.4 25.7 0.00 0.00 0.00 16 1009.7
20260504233650 23 230 16.1 25.7 0.00 0.00 0.00 16 1009.8
20260504233050 23 276 6.4 22.5 0.00 0.00 0.00 15 1009.8
20260504232449 23 268 6.4 17.7 0.00 0.00 0.00 15 1009.8
20260504231850 23 232 6.4 17.7 0.00 0.00 0.00 14 1009.8
20260504231249 23 251 4.8 25.7 0.00 0.00 0.00 14 1009.8
20260504230649 23 238 14.5 25.7 0.00 0.00 0.00 14 1009.9
20260504230050 23 238 6.4 24.1 0.00 0.00 0.00 14 1009.8
20260504225450 23 242 11.3 24.1 0.00 0.00 0.00 14 1009.8
20260504224849 23 232 16.1 27.4 0.00 0.00 0.00 14 1009.9
20260504224250 23 225 6.4 20.9 0.00 0.00 0.00 14 1009.9
20260504223649 23 226 12.9 25.7 0.00 0.00 0.00 14 1010.0
20260504223049 23 220 8.0 29.0 0.00 0.00 0.00 14 1010.0
20260504222449 23 224 12.9 24.1 0.00 0.00 0.00 14 1010.2
20260504221849 23 213 14.5 30.6 0.00 0.00 0.00 14 1010.3
20260504221250 23 234 19.3 30.6 0.00 0.00 0.00 14 1010.4
20260504220649 23 238 16.1 22.5 0.00 0.00 0.00 14 1010.3
20260504220049 23 222 8.0 24.1 0.00 0.00 0.00 14 1010.5
20260504215449 23 235 11.3 25.7 0.00 0.00 0.00 14 1010.5
20260504214849 23 248 14.5 25.7 0.00 0.00 0.00 15 1010.6
20260504214248 23 243 6.4 27.4 0.00 0.00 0.00 15 1010.7
20260504213649 23 224 3.2 24.1 0.00 0.00 0.00 15 1010.7
20260504213049 23 206 14.5 24.1 0.00 0.00 0.00 16 1010.9
20260504212449 23 212 9.7 22.5 0.00 0.00 0.00 16 1010.9
20260504211849 23 218 8.0 19.3 0.00 0.00 0.00 15 1011.0
20260504211248 23 249 6.4 17.7 0.00 0.00 0.00 15 1011.0
20260504210649 24 238 6.4 19.3 0.00 0.00 0.00 16 1011.2
20260504210049 23 243 3.2 11.3 0.00 0.00 0.00 17 1011.3
20260504205449 23 278 1.6 19.3 0.00 0.00 0.00 18 1011.5
20260504204850 23 330 1.6 20.9 0.00 0.00 0.00 18 1011.7
20260504204248 23 278 3.2 8.0 0.00 0.00 0.00 18 1011.8
20260504203649 23 201 0.0 1.6 0.00 0.00 0.00 19 1011.9
20260504203049 22 223 0.0 12.9 0.00 0.00 0.00 19 1012.3
20260504202448 22 231 0.0 12.9 0.00 0.00 0.00 19 1012.5
20260504201848 22 246 4.8 12.9 0.00 0.00 0.00 20 1012.6
20260504201249 22 277 3.2 16.1 0.00 0.00 0.00 19 1012.8
20260504200648 22 216 6.4 24.1 0.00 0.00 0.00 20 1012.8
20260504200048 22 237 1.6 19.3 0.00 0.00 0.00 20 1012.8
20260504195449 22 241 8.0 20.9 0.00 0.00 0.00 19 1013.1
20260504194849 22 236 9.7 20.9 0.00 0.00 0.00 19 1013.0
20260504194249 22 230 9.7 19.3 0.00 0.00 0.00 20 1013.1
20260504193648 22 225 1.6 16.1 0.00 0.00 0.00 20 1013.2
20260504193049 21 239 4.8 16.1 0.00 0.00 0.00 21 1013.3
20260504192449 21 222 6.4 25.7 0.00 0.00 0.00 20 1013.3
20260504191849 21 283 16.1 25.7 0.00 0.00 0.00 20 1013.4
20260504191248 21 221 8.0 14.5 0.00 0.00 0.00 21 1013.4
20260504190648 21 201 0.0 8.0 0.00 0.00 0.00 22 1013.5
20260504190049 21 189 1.6 11.3 0.00 0.00 0.00 22 1013.5
20260504185448 20 232 0.0 22.5 0.00 0.00 0.00 22 1013.9
20260504184848 20 218 9.7 22.5 0.00 0.00 0.00 21 1014.0
20260504184248 20 255 4.8 14.5 0.00 0.00 0.00 23 1014.2
20260504183648 20 243 1.6 11.3 0.00 0.00 0.00 23 1014.2
20260504183048 20 139 1.6 19.3 0.00 0.00 0.00 23 1014.2
20260504182448 20 261 9.7 19.3 0.00 0.00 0.00 24 1014.3
20260504181848 20 216 3.2 11.3 0.00 0.00 0.00 23 1014.4
20260504181248 20 220 4.8 19.3 0.00 0.00 0.00 23 1014.4
20260504180648 20 246 9.7 22.5 0.00 0.00 0.00 22 1014.5
20260504180048 20 232 8.0 19.3 0.00 0.00 0.00 21 1014.6
20260504175449 20 254 3.2 20.9 0.00 0.00 0.00 23 1014.6
20260504174848 20 210 4.8 20.9 0.00 0.00 0.00 23 1014.5
20260504174247 19 236 0.0 6.4 0.00 0.00 0.00 24 1014.6
20260504173647 19 220 0.0 16.1 0.00 0.00 0.00 24 1014.9
20260504173047 19 266 6.4 14.5 0.00 0.00 0.00 23 1015.0
20260504172447 19 226 1.6 16.1 0.00 0.00 0.00 23 1014.9
20260504171847 19 230 9.7 16.1 0.00 0.00 0.00 24 1015.0
20260504171247 19 219 3.2 9.7 0.00 0.00 0.00 25 1015.0
20260504170647 18 245 1.6 9.7 0.00 0.00 0.00 25 1014.9
20260504150647 15 162 0.0 0.0 0.00 0.00 0.00 54 1015.5